PBO Station Position Time Series. Reference Frame : NAM14
Format Version,1.1.0
4-character ID,MLF1
Station name,Millers_Ferry_1
Begin Date, 1996-10-08
End Date, 2007-06-13
Release Date, 2019-08-30
Reference position, 32.0902608246 North Latitude, -87.3918137042 East Longitude, 9.06164 meters elevation,
Date, North (mm), East (mm), Vertical (mm), North Std. Deviation (mm), East Std. Deviation (mm),              Vertical Std. Deviation (mm), Quality,
1996-10-08,0.00, 0.00, 0.00, 2.60, 2.37, 8.69, repro,
1996-10-09,0.81, 0.28, -4.95, 2.64, 2.39, 8.85, repro,
1996-10-10,2.55, -0.17, -6.66, 2.69, 2.42, 9.13, repro,
1996-10-11,2.31, -0.45, -12.58, 3.17, 2.70, 11.05, repro,
1996-10-12,1.44, -0.94, -5.61, 2.52, 2.29, 8.46, repro,
1996-10-13,1.94, -1.45, -5.96, 2.61, 2.36, 8.65, repro,
1996-10-14,1.63, -2.66, -0.80, 2.62, 2.37, 8.69, repro,
1996-10-15,2.09, -0.69, -3.14, 2.65, 2.33, 8.79, repro,
1996-10-16,-0.49, -3.24, 0.61, 2.64, 2.34, 9.05, repro,
1996-10-17,0.56, -1.88, -0.33, 2.59, 2.29, 8.65, repro,
1996-10-18,-4.07, 0.76, -1.69, 2.28, 2.05, 8.60, repro,
1996-10-19,0.59, -0.10, -12.42, 2.35, 2.13, 8.48, repro,
1996-10-20,-2.13, -0.83, -8.73, 2.35, 2.06, 8.66, repro,
1996-10-22,-0.21, 0.10, -8.15, 2.58, 2.29, 8.76, repro,
1996-10-23,-1.83, -0.07, 3.75, 2.66, 2.34, 9.29, repro,
1996-10-24,-0.61, -0.36, -13.40, 2.35, 2.06, 8.80, repro,
1996-10-25,0.32, 1.11, -3.65, 2.50, 2.22, 8.70, repro,
1996-10-26,0.90, -1.89, -14.57, 2.55, 2.21, 8.72, repro,
1996-10-27,2.51, -1.72, -2.60, 2.54, 2.22, 8.71, repro,
1996-10-28,0.75, -0.25, -8.15, 2.51, 2.26, 8.71, repro,
1996-10-29,-1.87, -0.40, -16.93, 2.30, 2.06, 8.37, repro,
1996-10-30,-0.43, 0.15, -21.40, 2.28, 2.11, 8.52, repro,
1996-10-31,-0.41, -1.07, -11.19, 2.56, 2.27, 9.03, repro,
1996-11-01,2.18, -1.20, -11.16, 2.49, 2.23, 8.71, repro,
1996-11-02,0.61, 1.57, -9.87, 2.58, 2.29, 9.19, repro,
1996-11-03,-0.06, 0.36, -16.95, 2.56, 2.25, 8.78, repro,
1996-11-04,-3.67, -0.87, -19.29, 2.64, 2.52, 9.92, repro,
1996-11-05,0.93, -0.14, -10.80, 2.57, 2.34, 8.86, repro,
1996-11-06,1.52, -3.49, -5.25, 2.69, 2.44, 9.74, repro,
1996-11-07,4.74, -4.86, -6.96, 2.65, 2.36, 9.23, repro,
1996-11-08,-0.72, -3.13, -16.19, 2.47, 2.26, 9.37, repro,
1996-11-09,0.74, -3.63, -1.23, 2.74, 2.52, 9.71, repro,
1996-11-10,2.18, -3.27, -0.69, 2.73, 2.54, 9.77, repro,
1996-11-11,-0.33, -4.10, -13.55, 2.49, 2.30, 9.42, repro,
1996-11-12,3.07, -2.14, -17.61, 2.65, 2.50, 9.51, repro,
1996-11-13,1.54, -1.88, -12.37, 2.58, 2.37, 9.11, repro,
1996-11-14,1.60, -2.35, -4.60, 2.60, 2.39, 9.17, repro,
1996-11-15,-0.13, -1.06, -6.69, 2.52, 2.26, 8.85, repro,
1996-11-16,0.92, -4.04, -14.99, 2.72, 2.42, 9.90, repro,
1996-11-17,-0.01, -0.21, -8.15, 2.70, 2.54, 9.70, repro,
1996-11-18,0.88, -0.43, -5.53, 2.77, 2.58, 9.96, repro,
1996-11-19,-1.58, -2.17, -4.64, 2.91, 2.65, 10.41, repro,
1996-11-20,0.07, -5.53, 3.37, 2.51, 2.30, 8.86, repro,
1996-11-21,0.06, -6.63, 4.34, 2.61, 2.44, 9.36, repro,
1996-11-22,-1.94, 0.27, -9.17, 2.50, 2.35, 9.13, repro,
1996-11-23,1.29, -4.36, -1.83, 2.52, 2.34, 9.16, repro,
1996-11-24,1.99, -1.04, -3.91, 2.65, 2.41, 9.40, repro,
1996-11-25,1.03, -2.23, 0.75, 2.61, 2.43, 9.53, repro,
1996-11-26,-0.76, -2.79, -15.54, 2.54, 2.34, 9.03, repro,
1996-11-27,1.87, -0.50, -10.06, 2.56, 2.42, 9.27, repro,
1996-11-28,0.44, -1.09, -7.69, 2.59, 2.35, 9.48, repro,
1996-11-29,0.70, -1.12, -6.97, 2.72, 2.47, 9.98, repro,
1996-11-30,-0.06, -1.92, 1.43, 2.56, 2.40, 9.71, repro,
1996-12-01,0.86, 1.55, -3.43, 2.61, 2.37, 9.73, repro,
1996-12-02,0.34, -5.96, 4.54, 2.68, 2.50, 9.53, repro,
1996-12-03,0.11, 2.28, 4.62, 2.59, 2.41, 9.28, repro,
1996-12-04,2.91, -5.77, -4.54, 2.65, 2.42, 9.51, repro,
1996-12-05,-0.29, 1.80, 9.21, 2.75, 2.55, 10.44, repro,
1996-12-06,2.42, -1.01, 7.64, 2.86, 2.67, 10.43, repro,
1996-12-07,5.55, -3.37, 4.65, 2.67, 2.46, 9.63, repro,
1996-12-08,3.92, -2.52, 1.49, 2.66, 2.47, 9.41, repro,
1996-12-09,-1.31, -9.61, 10.02, 3.72, 3.56, 14.95, repro,
1996-12-10,4.63, -3.38, -16.93, 3.08, 2.75, 10.85, repro,
1996-12-11,3.22, -1.11, 7.10, 2.61, 2.37, 9.24, repro,
1996-12-12,5.88, -1.52, -9.97, 2.78, 2.46, 9.87, repro,
1996-12-13,1.80, -1.27, -5.64, 2.55, 2.32, 8.91, repro,
1996-12-14,0.95, -2.05, -8.72, 2.55, 2.29, 8.89, repro,
1996-12-15,2.78, -2.18, -14.43, 2.65, 2.40, 9.19, repro,
1996-12-16,0.76, -1.26, -11.63, 2.46, 2.17, 8.57, repro,
1996-12-17,-1.40, -3.07, -12.03, 2.68, 2.51, 9.45, repro,
1996-12-18,1.21, -2.00, -11.93, 2.51, 2.26, 8.54, repro,
1996-12-19,3.61, -1.61, -13.62, 2.60, 2.39, 9.10, repro,
1996-12-20,2.21, -1.63, -3.89, 2.64, 2.44, 9.31, repro,
1996-12-21,4.18, -0.20, -9.46, 2.68, 2.43, 9.11, repro,
1996-12-22,3.74, 0.09, -11.19, 2.63, 2.34, 8.69, repro,
1996-12-23,1.91, -1.28, -9.00, 2.61, 2.35, 8.79, repro,
1996-12-24,0.83, -4.86, -12.41, 2.56, 2.33, 8.82, repro,
1996-12-25,1.46, -1.01, -14.11, 2.63, 2.38, 9.30, repro,
1996-12-26,4.06, -0.95, -11.99, 2.64, 2.39, 9.14, repro,
1996-12-27,3.23, -1.29, -6.66, 2.67, 2.40, 8.90, repro,
1996-12-28,1.26, -0.64, -4.87, 2.64, 2.35, 8.89, repro,
1996-12-29,2.55, -1.27, 4.94, 2.59, 2.31, 8.98, repro,
1996-12-30,4.52, -0.41, 3.83, 2.71, 2.43, 9.48, repro,
1996-12-31,2.27, -1.08, -9.30, 2.68, 2.37, 9.31, repro,
1997-01-01,3.15, -2.51, -5.03, 2.61, 2.30, 9.14, repro,
1997-01-02,0.19, -0.77, 1.39, 2.62, 2.39, 9.49, repro,
1997-01-03,0.73, -1.06, 5.77, 2.64, 2.47, 9.57, repro,
1997-01-04,-2.03, -2.79, 0.07, 2.63, 2.37, 9.08, repro,
1997-01-05,-2.08, -2.19, -1.07, 2.57, 2.30, 9.31, repro,
1997-01-06,1.03, -0.02, -5.72, 2.65, 2.43, 9.48, repro,
1997-01-07,-2.29, -2.43, -10.36, 2.45, 2.21, 9.14, repro,
1997-01-08,-4.01, -0.54, -19.87, 2.44, 2.15, 9.05, repro,
1997-01-09,-2.74, -0.91, -7.59, 2.57, 2.35, 9.54, repro,
1997-01-10,-1.27, 0.04, -10.91, 2.28, 2.08, 8.46, repro,
1997-01-11,-2.80, -0.95, -9.87, 2.45, 2.21, 9.01, repro,
1997-01-12,-3.55, 0.20, -14.54, 2.51, 2.28, 9.23, repro,
1997-01-13,-1.87, -2.56, -30.23, 2.44, 2.21, 9.15, repro,
1997-01-14,-2.07, -2.30, -22.15, 2.66, 2.38, 10.18, repro,
1997-01-15,-5.19, 2.48, -15.69, 2.63, 2.35, 9.72, repro,
1997-01-16,-2.43, 1.93, -9.80, 3.02, 2.83, 11.32, repro,
1997-01-17,-2.62, 1.85, -4.72, 2.79, 2.58, 10.69, repro,
1997-01-18,-2.45, 1.97, -13.35, 2.52, 2.29, 9.23, repro,
1997-01-19,-1.06, 1.11, -12.18, 2.53, 2.36, 9.16, repro,
1997-01-20,-3.61, 2.75, -23.90, 2.31, 2.09, 8.49, repro,
1997-01-21,-4.41, -1.28, -42.58, 4.06, 3.68, 15.74, repro,
1997-01-22,-8.57, 0.80, -4.89, 2.77, 2.45, 9.49, repro,
1997-01-23,-2.04, 2.16, -14.78, 2.45, 2.20, 9.03, repro,
1997-01-24,-4.03, 3.12, -2.93, 2.72, 2.44, 9.58, repro,
1997-01-25,-3.29, 1.02, -15.38, 2.62, 2.31, 9.52, repro,
1997-01-26,-3.28, -1.78, -22.68, 2.56, 2.32, 9.31, repro,
1997-01-27,-3.20, 1.55, -14.89, 3.02, 2.76, 10.28, repro,
1997-01-28,-2.73, -1.65, -11.86, 2.46, 2.25, 9.14, repro,
1997-01-29,-3.10, 2.48, -24.51, 2.40, 2.20, 8.81, repro,
1997-01-30,-2.13, -0.67, -15.36, 2.46, 2.19, 8.53, repro,
1997-01-31,0.34, 0.21, -8.88, 2.45, 2.18, 8.45, repro,
1997-02-01,-1.08, -2.37, -7.32, 2.35, 2.13, 8.52, repro,
1997-02-02,-2.02, -2.08, -20.46, 3.26, 2.94, 11.47, repro,
1997-02-03,-3.00, -1.24, -28.21, 3.27, 2.95, 11.42, repro,
1997-02-04,-1.49, 1.55, -22.03, 3.22, 3.06, 11.79, repro,
1997-02-05,0.49, -0.80, -11.69, 3.19, 2.95, 11.28, repro,
1997-02-06,-0.86, -1.88, -19.57, 3.20, 2.93, 11.18, repro,
1997-02-07,-1.39, -4.16, -27.46, 3.18, 2.91, 11.29, repro,
1997-02-08,-1.06, -2.75, -27.82, 3.11, 2.84, 11.07, repro,
1997-02-09,-3.02, -2.18, -32.51, 3.18, 2.89, 11.18, repro,
1997-02-10,-4.49, 0.92, -20.54, 3.34, 3.13, 12.17, repro,
1997-02-11,-4.22, 0.25, -27.95, 3.22, 2.90, 11.11, repro,
1997-02-12,-1.95, -0.90, -26.92, 3.15, 2.84, 10.90, repro,
1997-02-13,-1.79, 2.14, -30.34, 3.14, 2.85, 10.99, repro,
1997-02-14,1.43, -1.71, -19.30, 3.41, 3.11, 13.41, repro,
1997-02-15,-1.74, 0.92, -28.36, 3.39, 3.15, 13.06, repro,
1997-02-16,-2.14, 2.74, -21.96, 3.14, 2.94, 12.21, repro,
1997-02-17,-1.80, 1.77, -26.57, 3.35, 3.09, 12.86, repro,
1997-02-18,1.05, -0.15, -25.41, 3.42, 3.30, 13.12, repro,
1997-02-19,-0.83, -4.78, -19.18, 3.29, 3.08, 12.64, repro,
1997-02-20,0.38, -5.03, -19.87, 3.23, 3.04, 12.53, repro,
1997-02-21,-1.10, -1.11, -6.33, 3.23, 3.09, 12.52, repro,
1997-02-22,-1.29, 0.73, -17.31, 3.18, 3.03, 12.34, repro,
1997-02-23,-1.49, 1.22, -26.81, 3.25, 3.08, 12.27, repro,
1997-02-24,-0.84, -0.07, -19.26, 2.73, 2.42, 9.40, repro,
1997-02-25,-2.46, -1.71, -26.19, 2.34, 2.10, 8.60, repro,
1997-02-26,-4.09, 0.23, -21.49, 2.38, 2.13, 8.85, repro,
1997-02-27,0.39, -0.12, -10.71, 2.63, 2.35, 8.94, repro,
1997-02-28,-6.31, -2.90, -16.42, 2.42, 2.25, 9.34, repro,
1997-03-01,-3.30, 0.19, -9.16, 2.63, 2.42, 9.19, repro,
1997-03-02,-5.89, 0.03, -20.63, 2.37, 2.14, 8.83, repro,
1997-03-03,-3.71, -3.62, -9.18, 2.32, 2.08, 8.77, repro,
1997-03-04,-7.85, 1.54, -18.39, 2.36, 2.11, 8.80, repro,
1997-03-05,-1.70, 1.04, -21.76, 2.42, 2.19, 8.68, repro,
1997-03-06,-0.50, -2.45, -36.71, 2.39, 2.19, 9.07, repro,
1997-03-07,-2.45, 0.86, -19.69, 2.37, 2.09, 8.84, repro,
1997-03-08,-1.83, -2.03, -26.28, 2.61, 2.31, 9.38, repro,
1997-03-09,-2.99, 0.21, -7.02, 2.68, 2.38, 9.51, repro,
1997-03-10,-3.49, -0.69, -15.10, 2.53, 2.30, 9.11, repro,
1997-03-11,-5.78, -0.33, -23.76, 2.49, 2.28, 9.37, repro,
1997-03-12,-4.18, 0.37, -24.93, 2.37, 2.17, 9.03, repro,
1997-03-13,-5.56, -0.22, -30.89, 2.40, 2.17, 8.78, repro,
1997-03-14,-4.01, -0.82, -13.05, 2.43, 2.16, 9.05, repro,
1997-03-15,-4.22, -0.08, -31.05, 2.43, 2.19, 8.98, repro,
1997-03-16,-0.61, -1.27, -18.81, 2.49, 2.20, 8.84, repro,
1997-03-17,-5.07, -2.12, -21.84, 2.29, 2.03, 8.67, repro,
1997-03-18,-1.39, -1.44, -15.86, 2.52, 2.28, 9.12, repro,
1997-03-19,-0.39, -4.78, -15.03, 2.52, 2.26, 8.93, repro,
1997-03-20,-3.48, -1.35, -13.10, 2.29, 2.04, 8.69, repro,
1997-03-21,8.79, 1.47, -4.56, 9.39, 13.91, 60.06, repro,
1997-03-22,-0.22, -3.03, -23.16, 4.26, 4.04, 16.21, repro,
1997-03-23,0.40, -2.84, -19.05, 4.26, 4.15, 16.41, repro,
1997-03-24,0.25, -0.52, -2.65, 2.61, 2.38, 9.54, repro,
1997-03-25,-2.22, -2.13, -12.95, 2.39, 2.10, 8.83, repro,
1997-03-26,-4.22, -1.54, -11.98, 2.33, 2.09, 8.91, repro,
1997-03-27,-1.74, -2.77, -14.46, 2.52, 2.27, 9.12, repro,
1997-03-28,-3.77, -1.58, -17.37, 2.26, 2.06, 8.66, repro,
1997-03-29,-3.86, -2.93, -17.14, 2.24, 1.99, 8.48, repro,
1997-03-30,-2.57, 1.58, -21.60, 2.27, 2.00, 8.53, repro,
1997-04-01,-2.61, -0.85, -28.83, 2.34, 2.07, 8.88, repro,
1997-04-02,-1.05, -1.79, -14.55, 2.59, 2.27, 9.21, repro,
1997-04-03,-1.84, -0.86, -14.61, 2.24, 1.99, 8.35, repro,
1997-04-04,-4.82, -1.46, -14.66, 2.22, 1.98, 8.42, repro,
1997-04-05,-3.86, -1.38, -11.86, 2.44, 2.14, 9.80, repro,
1997-04-06,0.85, -1.97, -22.16, 2.53, 2.26, 9.23, repro,
1997-04-07,-3.25, -2.45, -18.11, 2.34, 2.11, 9.19, repro,
1997-04-08,0.73, -0.89, -9.37, 2.53, 2.28, 9.26, repro,
1997-04-09,-0.64, -1.45, -13.20, 2.49, 2.23, 9.19, repro,
1997-04-10,-0.56, -1.50, -17.35, 2.63, 2.35, 9.44, repro,
1997-04-11,-2.04, -1.20, -23.55, 2.35, 2.10, 8.82, repro,
1997-04-12,-3.61, -1.05, -18.04, 2.30, 1.99, 8.59, repro,
1997-04-13,-2.28, -2.18, -7.45, 2.27, 2.04, 8.82, repro,
1997-04-14,-1.49, -0.20, -16.11, 2.29, 2.08, 8.82, repro,
1997-04-15,0.03, -0.21, -15.52, 2.53, 2.28, 9.33, repro,
1997-04-16,2.46, -2.20, -18.84, 2.57, 2.31, 9.36, repro,
1997-04-17,-4.60, -1.96, -21.95, 2.30, 2.06, 9.01, repro,
1997-04-18,-0.01, -2.58, -6.68, 2.61, 2.31, 9.75, repro,
1997-04-19,-4.73, -0.71, -17.41, 2.31, 2.06, 8.90, repro,
1997-04-20,-4.70, 0.26, -12.05, 2.31, 2.05, 8.69, repro,
1997-04-21,-4.18, -1.41, -10.89, 2.29, 2.01, 8.57, repro,
1997-04-22,-3.97, -2.24, -6.14, 2.51, 2.37, 9.81, repro,
1997-04-23,0.15, -0.31, -6.73, 2.57, 2.28, 9.17, repro,
1997-04-24,-0.73, 0.33, -6.47, 2.38, 2.16, 9.18, repro,
1997-04-25,-1.03, 0.44, -9.25, 2.61, 2.39, 9.66, repro,
1997-04-26,0.86, -0.53, -7.69, 2.52, 2.26, 9.32, repro,
1997-04-27,-7.08, -3.05, -20.37, 2.42, 2.14, 9.07, repro,
1997-04-28,-2.25, -1.23, -4.04, 2.50, 2.13, 8.96, repro,
1997-04-29,-2.30, 1.13, -16.67, 2.41, 2.16, 9.09, repro,
1997-04-30,-1.06, 0.92, -17.62, 2.41, 2.13, 8.79, repro,
1997-05-01,-0.51, 0.48, -11.36, 2.50, 2.20, 8.90, repro,
1997-05-02,-1.33, 0.69, -19.47, 2.26, 2.05, 8.72, repro,
1997-05-03,-0.39, 0.67, 1.12, 2.50, 2.21, 8.98, repro,
1997-05-04,0.14, -0.19, -16.78, 2.44, 2.17, 8.93, repro,
1997-05-05,0.42, -1.83, -22.12, 2.59, 2.28, 9.20, repro,
1997-05-06,-2.61, -0.55, -22.71, 2.30, 2.00, 8.58, repro,
1997-05-07,1.91, -1.39, -13.80, 2.52, 2.22, 9.06, repro,
1997-05-08,-2.70, 0.15, -16.51, 2.23, 1.96, 8.49, repro,
1997-05-09,-3.98, -1.59, -20.24, 2.26, 2.02, 8.74, repro,
1997-05-10,-0.15, 0.30, -18.76, 2.68, 2.33, 9.61, repro,
1997-05-11,-2.51, -0.71, -20.17, 2.19, 1.93, 8.36, repro,
1997-05-12,-3.43, -0.61, -13.98, 2.21, 1.97, 8.53, repro,
1997-05-13,-2.73, -0.21, -17.00, 2.20, 1.97, 8.58, repro,
1997-05-14,-4.97, 0.07, -11.15, 2.25, 1.99, 8.54, repro,
1997-05-15,-1.20, -1.22, -25.91, 2.24, 1.98, 8.56, repro,
1997-05-16,-4.14, -0.18, -14.27, 2.25, 1.99, 8.59, repro,
1997-05-17,-3.01, -2.69, -17.23, 2.33, 2.05, 8.96, repro,
1997-05-18,-4.06, -0.65, -16.31, 2.25, 1.99, 8.58, repro,
1997-05-19,-4.20, -0.39, -13.18, 2.38, 2.06, 9.06, repro,
1997-05-20,-4.53, -1.15, -11.88, 2.30, 2.00, 8.58, repro,
1997-05-21,-4.15, -1.01, -2.09, 2.28, 2.02, 8.76, repro,
1997-05-22,-4.49, -1.47, -15.92, 2.41, 2.04, 9.11, repro,
1997-05-23,-1.34, -1.08, -21.25, 2.40, 2.10, 9.39, repro,
1997-05-24,-2.97, 0.81, -7.77, 2.49, 2.07, 9.46, repro,
1997-05-25,-5.77, -0.08, -15.39, 2.40, 2.03, 9.19, repro,
1997-05-26,-5.93, -2.50, -15.51, 2.40, 2.09, 9.32, repro,
1997-05-27,-2.50, -0.48, -11.88, 2.46, 2.21, 9.83, repro,
1997-05-28,-1.58, 0.87, -32.91, 2.57, 2.17, 9.90, repro,
1997-05-29,-3.62, -1.19, -19.03, 2.30, 1.94, 8.62, repro,
1997-05-30,-5.22, -1.49, -15.15, 2.39, 2.02, 8.94, repro,
1997-05-31,-4.49, -2.77, -17.05, 2.33, 1.97, 8.78, repro,
1997-06-01,-6.21, 0.65, 1.83, 2.45, 2.07, 9.23, repro,
1997-06-02,-7.50, -0.82, -5.02, 2.42, 2.01, 9.05, repro,
1997-06-03,-4.47, -1.65, -20.43, 2.31, 1.94, 8.63, repro,
1997-06-04,-4.94, -1.67, -5.19, 2.35, 1.96, 8.72, repro,
1997-06-05,-5.76, -1.05, -8.25, 2.23, 1.95, 8.44, repro,
1997-06-06,-4.84, -0.95, -2.00, 2.36, 1.98, 8.88, repro,
1997-06-07,-3.58, 0.15, -21.12, 2.37, 1.98, 9.03, repro,
1997-06-08,-1.44, -0.42, -5.37, 2.36, 2.01, 8.93, repro,
1997-06-09,-4.16, 0.12, -20.55, 2.34, 2.02, 8.81, repro,
1997-06-10,-2.22, -0.66, -7.68, 2.48, 2.10, 9.01, repro,
1997-06-11,-2.54, -1.34, -22.09, 2.39, 2.02, 8.91, repro,
1997-06-12,-2.67, -1.92, -3.95, 2.51, 2.12, 9.05, repro,
1997-06-13,-2.38, -1.26, -7.64, 2.38, 2.01, 8.80, repro,
1997-06-14,-7.30, 0.74, -5.78, 2.50, 2.15, 9.82, repro,
1997-06-15,-2.46, 1.62, 1.41, 2.42, 2.02, 9.17, repro,
1997-06-16,-3.36, -1.75, 5.34, 2.36, 2.02, 9.00, repro,
1997-06-17,-2.54, -3.91, -13.77, 2.61, 2.22, 9.90, repro,
1997-06-18,-3.44, 0.15, -4.32, 2.50, 2.10, 9.34, repro,
1997-06-19,-2.75, 1.22, -11.85, 2.46, 2.06, 8.89, repro,
1997-06-20,-1.20, 0.44, -3.63, 2.69, 2.22, 9.79, repro,
1997-06-21,-10.91, 1.91, -1.04, 3.99, 3.17, 14.75, repro,
1997-06-22,-5.72, -2.11, -14.52, 2.38, 2.06, 9.04, repro,
1997-06-23,-2.35, 1.05, -4.02, 2.22, 1.94, 8.56, repro,
1997-06-24,-1.27, -0.06, -3.41, 2.43, 2.11, 9.37, repro,
1997-06-25,-1.74, 0.71, -15.58, 2.33, 2.00, 8.94, repro,
1997-06-26,-1.14, -1.96, -8.86, 2.28, 2.08, 9.03, repro,
1997-06-27,-3.01, -2.02, -9.78, 2.33, 1.94, 8.70, repro,
1997-06-28,-2.59, -1.02, -20.39, 2.32, 1.95, 8.72, repro,
1997-06-29,-1.38, -3.43, -5.83, 2.22, 1.94, 8.52, repro,
1997-06-30,-1.87, 0.17, -14.91, 2.22, 1.94, 8.66, repro,
1997-07-01,-7.22, -1.55, 3.71, 2.44, 2.23, 10.11, repro,
1997-07-02,-4.94, -3.27, -12.71, 2.30, 1.97, 8.93, repro,
1997-07-03,-2.49, 0.53, -12.28, 2.20, 1.95, 8.37, repro,
1997-07-04,-2.36, 2.08, -4.95, 2.20, 1.93, 8.47, repro,
1997-07-05,-4.36, 0.96, -10.50, 2.28, 2.08, 9.08, repro,
1997-07-06,-3.40, 0.09, -17.32, 2.20, 1.93, 8.43, repro,
1997-07-07,-3.05, -0.01, -9.21, 2.18, 1.95, 8.49, repro,
1997-07-08,-1.11, -1.49, -16.02, 2.22, 1.99, 8.71, repro,
1997-07-09,-2.47, 1.70, -2.41, 2.38, 2.25, 9.47, repro,
1997-07-10,-2.92, -0.52, -18.70, 2.27, 1.98, 8.81, repro,
1997-07-11,-1.57, -3.07, -27.10, 2.32, 1.98, 8.97, repro,
1997-07-12,-5.20, 2.05, -11.37, 2.30, 2.01, 9.07, repro,
1997-07-13,-1.54, 0.76, -12.82, 2.25, 1.98, 8.78, repro,
1997-07-14,-4.90, 1.32, -1.46, 2.43, 2.19, 9.71, repro,
1997-07-15,-1.12, 0.63, 4.84, 2.31, 2.10, 9.22, repro,
1997-07-16,-3.40, -0.42, -14.40, 2.29, 2.05, 8.89, repro,
1997-07-17,-1.46, -0.89, -18.01, 2.33, 2.13, 9.00, repro,
1997-07-18,0.20, -0.74, -8.94, 2.22, 1.95, 8.58, repro,
1997-07-19,-3.21, 1.43, 11.27, 2.32, 2.06, 8.89, repro,
1997-07-20,-4.93, -1.54, -8.27, 2.28, 2.05, 8.98, repro,
1997-07-21,-5.03, -1.06, -8.01, 2.25, 1.97, 8.65, repro,
1997-07-22,-3.23, 2.16, -14.69, 2.25, 1.98, 8.65, repro,
1997-07-23,-3.15, -1.37, -4.30, 2.32, 2.06, 8.97, repro,
1997-07-24,-1.15, 0.13, -12.22, 2.32, 2.02, 8.94, repro,
1997-07-25,-3.81, 0.59, -3.28, 2.33, 2.07, 9.23, repro,
1997-07-26,-2.29, -0.56, -4.79, 2.25, 2.00, 8.65, repro,
1997-07-27,-4.08, 3.54, -3.65, 2.24, 2.01, 8.80, repro,
1997-07-28,0.10, -1.19, -6.36, 2.27, 1.97, 8.66, repro,
1997-07-29,-1.57, -1.10, 0.28, 2.28, 2.04, 8.89, repro,
1997-07-30,-2.78, -1.27, -2.66, 2.31, 2.01, 8.61, repro,
1997-07-31,-2.92, -1.17, -13.06, 2.37, 2.04, 8.82, repro,
1997-08-01,-0.94, 2.35, -12.57, 2.25, 1.96, 8.47, repro,
1997-08-02,-0.39, -1.25, -14.92, 2.32, 2.02, 8.78, repro,
1997-08-03,-0.39, 2.76, -8.25, 2.29, 2.01, 8.72, repro,
1997-08-04,-2.87, 2.27, -10.16, 2.34, 2.11, 9.13, repro,
1997-08-05,-2.41, -0.25, -7.15, 2.26, 1.95, 8.57, repro,
1997-08-06,-2.96, 0.63, -2.69, 2.29, 2.04, 8.87, repro,
1997-08-07,0.53, 3.00, 0.45, 2.30, 1.99, 8.66, repro,
1997-08-08,-0.21, 0.21, 1.74, 2.37, 2.13, 9.21, repro,
1997-08-09,-3.42, -0.93, -1.06, 2.46, 2.08, 9.34, repro,
1997-08-10,-3.65, 2.42, -15.52, 2.28, 1.97, 8.71, repro,
1997-08-11,-2.89, -0.01, -9.59, 2.26, 1.96, 8.61, repro,
1997-08-12,-0.94, -1.32, -12.09, 2.30, 2.11, 9.05, repro,
1997-08-13,-0.47, 3.77, -2.06, 2.29, 1.99, 8.70, repro,
1997-08-14,-3.32, 0.93, -8.29, 2.34, 2.02, 8.86, repro,
1997-08-15,-2.82, 1.22, 2.58, 2.38, 2.05, 8.80, repro,
1997-08-16,-0.85, 0.83, 5.12, 2.27, 1.98, 8.55, repro,
1997-08-17,-1.19, -0.49, -6.40, 2.27, 1.97, 8.69, repro,
1997-08-18,-1.44, 1.29, -5.32, 2.34, 2.04, 8.94, repro,
1997-08-19,-4.32, 0.36, -3.58, 2.28, 1.95, 8.54, repro,
1997-08-20,-3.10, 0.15, 3.14, 2.46, 2.03, 9.23, repro,
1997-08-21,-3.68, 0.97, 2.92, 2.28, 1.93, 8.43, repro,
1997-08-22,-1.94, -0.94, 3.12, 2.24, 1.93, 8.46, repro,
1997-08-23,-2.50, 0.07, -13.03, 2.26, 1.94, 8.43, repro,
1997-08-24,-2.38, 0.18, -8.63, 2.36, 2.04, 8.54, repro,
1997-08-25,-0.92, -1.39, -18.08, 2.38, 2.03, 8.80, repro,
1997-08-26,-5.10, 0.32, -9.83, 2.30, 1.96, 8.52, repro,
1997-08-27,-1.64, 0.13, -4.95, 2.28, 1.98, 8.51, repro,
1997-08-28,-1.29, -0.62, -7.98, 2.21, 1.90, 8.40, repro,
1997-08-29,-0.75, 2.93, -4.92, 2.33, 2.00, 8.66, repro,
1997-08-30,0.11, 2.08, -11.18, 2.38, 2.08, 8.96, repro,
1997-08-31,-0.89, -26.42, 75.91, 4.16, 3.85, 17.97, repro,
1997-10-06,-2.58, 3.84, -12.09, 2.90, 2.52, 11.05, repro,
1997-10-07,-3.31, 5.70, -9.62, 2.43, 2.08, 9.30, repro,
1997-10-08,-2.60, 5.19, -9.62, 2.26, 1.98, 8.64, repro,
1997-10-10,-2.85, 3.96, -15.15, 2.40, 2.07, 9.26, repro,
1997-10-11,-2.76, 3.31, -12.96, 2.31, 2.00, 8.60, repro,
1997-10-12,-6.24, 3.38, -13.48, 2.28, 1.99, 8.69, repro,
1997-10-13,-4.20, 2.07, -4.51, 2.32, 2.01, 8.92, repro,
1997-10-14,-3.80, 0.63, -10.21, 2.45, 2.10, 9.66, repro,
1997-10-15,-6.38, 1.43, -11.62, 2.34, 2.04, 8.83, repro,
1997-10-16,-5.50, 1.66, -12.95, 2.26, 2.02, 8.90, repro,
1997-10-17,-3.86, 0.91, -5.87, 2.40, 2.19, 9.32, repro,
1997-10-18,-4.54, 1.05, -7.56, 2.35, 2.12, 9.17, repro,
1997-10-19,-3.78, 0.30, -5.47, 2.45, 2.27, 9.88, repro,
1997-10-20,-4.61, 0.35, -5.67, 2.37, 2.11, 9.47, repro,
1997-10-21,-8.45, 2.42, -24.06, 2.31, 2.08, 9.10, repro,
1997-10-22,-3.23, 1.32, -3.68, 2.34, 2.08, 9.20, repro,
1997-10-23,-5.51, 2.68, -3.57, 2.38, 2.08, 9.07, repro,
1997-10-24,-3.60, 5.42, -12.24, 2.32, 2.10, 9.14, repro,
1997-10-25,-10.04, 3.22, 3.29, 2.44, 2.20, 9.52, repro,
1997-10-26,-3.33, 2.59, 13.68, 2.46, 2.20, 9.74, repro,
1997-10-27,-7.53, 2.61, -13.26, 2.38, 2.12, 9.62, repro,
1997-10-28,-4.42, 3.87, -14.05, 2.25, 2.02, 8.77, repro,
1997-10-29,-4.23, 2.62, -16.22, 2.39, 2.11, 9.66, repro,
1997-10-30,-4.72, 1.53, -4.22, 2.25, 1.97, 8.80, repro,
1997-10-31,-3.69, 1.05, -7.38, 2.34, 2.11, 9.25, repro,
1997-11-01,-7.91, -2.51, -1.57, 2.24, 2.01, 8.78, repro,
1997-11-02,-6.59, 3.77, -6.48, 2.38, 2.12, 9.73, repro,
1997-11-03,-6.16, 2.74, -8.87, 2.38, 2.14, 9.66, repro,
1997-11-04,-7.49, 0.61, -3.08, 2.33, 2.08, 9.32, repro,
1997-11-05,-6.23, 0.62, -11.20, 2.34, 2.08, 9.19, repro,
1997-11-06,-2.61, 4.77, -17.26, 2.71, 2.47, 10.77, repro,
1997-11-07,-6.40, 2.09, -2.23, 2.49, 2.20, 9.75, repro,
1997-11-08,-2.49, 2.67, -13.41, 2.32, 2.10, 8.98, repro,
1997-11-09,-5.64, -0.51, -4.56, 2.32, 2.07, 9.15, repro,
1997-11-10,-6.18, 0.49, -1.59, 2.18, 1.93, 8.67, repro,
1997-11-11,-3.48, -0.64, -2.48, 2.45, 2.27, 9.96, repro,
1997-11-12,-3.17, 5.65, 2.70, 2.23, 2.01, 8.99, repro,
1997-11-13,-4.31, -1.61, 5.38, 2.35, 2.16, 9.20, repro,
1997-11-14,-8.01, 1.08, 10.94, 2.44, 2.25, 9.92, repro,
1997-11-15,-5.39, 2.72, -6.45, 2.25, 2.01, 8.85, repro,
1997-11-17,-5.00, -0.27, -9.96, 2.36, 2.14, 9.24, repro,
1997-11-18,-3.86, 2.41, -6.54, 2.43, 2.18, 9.49, repro,
1997-11-19,-5.83, 2.57, -10.71, 2.34, 2.14, 9.50, repro,
1997-11-20,-9.93, 1.62, -4.15, 2.22, 1.97, 8.82, repro,
1997-11-21,-3.57, 0.42, -11.91, 2.52, 2.41, 10.51, repro,
1997-11-22,-0.27, 1.84, -7.76, 2.49, 2.32, 10.08, repro,
1997-11-23,-3.55, 2.66, -5.74, 2.66, 2.20, 9.88, repro,
1997-11-24,-4.79, 3.02, -0.28, 2.43, 2.25, 10.00, repro,
1997-11-25,-1.74, 2.30, -3.34, 2.46, 2.20, 9.53, repro,
1997-11-26,-5.10, 0.19, -9.19, 2.47, 2.33, 9.98, repro,
1997-11-27,-4.02, 3.16, 10.58, 2.39, 2.11, 9.09, repro,
1997-11-28,-1.52, -0.28, 5.61, 2.33, 2.13, 9.11, repro,
1997-11-29,-0.56, 2.58, -11.70, 2.35, 2.11, 9.33, repro,
1997-11-30,-2.49, 3.28, 4.98, 2.28, 1.96, 8.65, repro,
1997-12-01,-4.82, 1.78, -2.71, 2.35, 2.09, 9.17, repro,
1997-12-02,-3.14, 2.86, -15.19, 2.23, 1.96, 8.64, repro,
1997-12-03,-3.55, 0.29, -12.42, 2.35, 2.10, 9.16, repro,
1997-12-04,-3.97, 1.84, -12.52, 2.21, 1.97, 8.64, repro,
1997-12-06,-3.43, 2.93, -16.12, 2.36, 2.07, 8.94, repro,
1997-12-07,-5.62, 1.27, -13.86, 2.23, 1.97, 8.78, repro,
1997-12-08,-8.83, 1.39, -21.23, 2.32, 2.03, 9.24, repro,
1997-12-09,-3.79, 2.18, -8.49, 2.18, 1.91, 8.33, repro,
1997-12-10,-4.08, -0.52, -0.41, 2.32, 2.09, 9.10, repro,
1997-12-11,-4.79, 2.62, -4.54, 2.30, 2.02, 8.96, repro,
1997-12-12,-3.04, 3.55, -6.62, 2.29, 1.98, 8.92, repro,
1997-12-13,-4.24, 0.17, -6.71, 2.31, 2.02, 9.09, repro,
1997-12-14,-1.78, 1.30, -12.86, 2.19, 1.94, 8.67, repro,
1997-12-15,-0.48, 1.88, -9.59, 2.37, 2.06, 9.19, repro,
1997-12-16,-2.71, 3.67, -2.10, 2.26, 2.01, 8.87, repro,
1997-12-18,-4.46, 2.54, -13.75, 2.18, 1.90, 8.18, repro,
1997-12-19,-5.48, 3.24, -12.40, 2.34, 1.98, 9.13, repro,
1997-12-20,-2.97, 3.45, -10.82, 2.36, 2.08, 9.13, repro,
1997-12-21,-4.59, 3.48, -11.01, 2.25, 2.16, 9.23, repro,
1997-12-23,-6.64, -0.05, -6.51, 2.28, 2.12, 9.33, repro,
1997-12-24,-5.84, 1.32, 1.20, 2.26, 2.09, 9.35, repro,
1997-12-25,-4.93, 0.82, -15.49, 2.24, 2.12, 8.96, repro,
1997-12-27,-8.28, 3.39, -20.61, 2.29, 2.15, 9.31, repro,
1997-12-28,-4.03, 4.03, -11.89, 2.24, 2.01, 8.91, repro,
1997-12-29,-4.61, 3.95, -7.15, 2.41, 2.20, 9.49, repro,
1997-12-30,-2.76, 5.03, 8.75, 2.28, 2.07, 8.97, repro,
1997-12-31,-5.47, 5.13, -10.72, 2.22, 1.97, 8.54, repro,
1998-01-01,-3.70, 5.26, -17.87, 2.22, 2.04, 8.75, repro,
1998-01-02,-2.06, 6.05, -20.65, 2.26, 1.91, 8.84, repro,
1998-01-03,-5.51, 1.17, -18.40, 2.18, 1.99, 8.64, repro,
1998-01-04,-5.20, 3.31, -17.82, 2.20, 1.92, 8.39, repro,
1998-01-05,-6.60, 3.78, -8.77, 2.23, 1.95, 8.96, repro,
1998-01-06,-5.91, 3.99, -11.03, 2.27, 1.99, 9.09, repro,
1998-01-07,-5.36, 5.37, -3.41, 2.38, 2.14, 9.50, repro,